Commit Graph

28 Commits

Author SHA1 Message Date
holger.trampe c9ebe2853a Migrateterror 2019-12-15 22:05:40 +01:00
Holger Trampe 590d207429 CKEditor Plugin angelegt, aber nicht eingebunden.
Organigramm sichtbar/nicht sichtbar bei User eingestellt
Bereichspriorisierung eingestellt und im Main-Organigramm übernommen
Rechtschreibfehler bei Mail geklärt
2019-12-15 16:50:02 +01:00
holger.trampe ab3f761ca6 AGAIN PLS 2019-12-12 21:22:06 +01:00
holger.trampe 05b84ebe45 tralala 2019-12-12 21:17:14 +01:00
holger.trampe 6f2d0adfff ALLES FÜR EINE FEUCHTE VAGINA 2019-12-12 21:13:13 +01:00
holger.trampe dc7da099d3 Tabellen gleiche Breite 2019-12-12 21:00:16 +01:00
holger.trampe 47dcf94f51 Dashboard mit Kacheln IHR LAPPEN! 2019-12-12 20:47:51 +01:00
holger.trampe 9eb57443f9 upsi :) 2019-12-12 20:12:25 +01:00
holger.trampe 7a8ef1a9eb Orga schick die 2 2019-12-12 20:10:06 +01:00
holger.trampe fbb71e556d Organigramm klickbar 2019-12-12 16:15:19 +01:00
holger.trampe 1073e9d8a9 orga teil 2 2019-12-12 15:31:59 +01:00
holger.trampe 5a830cf48e nochmla orga angepasst 2019-12-12 11:20:03 +01:00
holger.trampe 1dbb3b127e Bild Agentur größer 2019-12-12 11:16:34 +01:00
holger.trampe eb06b38d0a GitIgnore hinzugefügt um sicherzustellen, dass die Ordner MIGRATIONS nicht mehr überschrieben werden. Damit sollte das anpassen der Datenbank mit makemigrations und migrate ausreichen 2019-12-12 10:56:55 +01:00
holger.trampe 7629ff151a GitIgnore hinzugefügt um sicherzustellen, dass die Ordner MIGRATIONS nicht mehr überschrieben werden. Damit sollte das anpassen der Datenbank mit makemigrations und migrate ausreichen 2019-12-12 08:22:48 +01:00
Holger Trampe 8b35c69c4e breiter 2019-12-12 00:38:17 +01:00
Holger Trampe bd8a437916 Orga Testversion 2019-12-12 00:08:30 +01:00
Holger Trampe 1ffeadc768 Userprofile mit Parent hinzugefügt 2019-12-11 23:22:08 +01:00
Holger Trampe 1b6704991e Bugs eingepflegt oder Karte erstellt inkl. Hinweis in Bugs 2019-12-11 20:07:29 +01:00
Holger Trampe eac471b504 Löschabläufe gecheckt und fertig implementiert - BITTE CHECKEN!
E-Mail-Tempates Registrierung, Passwort vergessen und neue Nutzer drinnen
2019-12-11 19:25:33 +01:00
holger.trampe dc8be886e6 E-Mailtemplate vorbereitet 2019-12-11 16:58:21 +01:00
Holger Trampe 732744b078 Support final ohne bilder 2019-12-10 23:15:37 +01:00
Holger Trampe 566ce3d68c Zuständigkeiten fertig 2019-12-10 19:49:09 +01:00
holger.trampe b6f493c3a5 Gerätwechsel 2019-12-10 16:28:05 +01:00
Holger Trampe 7c42614053 News-Modul eingebaut
Tabellarische Ansichten fertig
Leerzeichen bei Agenturleitung entfernt
2019-12-09 20:14:03 +01:00
Holger Trampe 04f2dd24a6 Ansicht Standards Fertig 2019-12-09 17:27:15 +01:00
holger.trampe 4b51d757e3 - Sicherheitslücke beim ändern von Priorisierungen geschlossen, die angeforderte ID wird nun mit der Agency des eingeloggten USers verglichen
- Suche implementiert: Jetzt kann aus jeder Ansicht heraus sofort gesucht werden, man kann von den Ergebnissen des Standards direkt zum Standard gehen; Es wurd gesucht im Namen, COntext und Hersteller. Sollte die Suiche gelöscht werden sieht man die aktuelle Ansicht wieder
2019-12-06 18:04:58 +01:00
Holger Trampe 8c448ae029 - Pilotversion bis auf Style-Feinheiten fertig 2019-12-06 00:24:38 +01:00